Location: Adrasan
(36.3319°N, 30.4314°E)
Time: 02:54:29
(UTC+00:00)

COSMO-SKYMED 1 - Pass Details

Date: 21 October 2025
Orbit: 580 x 582 km, 97.9° (Epoch: 13 November)

Event Time Altitude Azimuth Distance (km) Brightness Sun altitude
Rises 03:08:14 0° 155° (SSE) 2,795 6.3 -13.3°
Reaches altitude 10° 03:10:25 10° 151° (SSE) 1,899 5.5 -12.9°
Maximum altitude 03:14:25 53° 75° (ENE) 723 3.3 -12.1°
Drops below altitude 10° 03:18:27 10° 358° (N) 1,909 5.0 -11.2°
Sets 03:20:39 0° 354° (N) 2,812 5.8 -10.8°
